Sabadell Airport

Jump to: basic info | weather | runways | comments

Related pages: nearby airports | nearby navaids | notams | map

Basic information (top)

Codes: QSA LELL
Location: lon 41.520901, lat 2.105080, elev 485 ft / 148 m msl
Status: small_airport

Weather (top)

Current conditions (rec'd 2014/08/30 18:00Z):

LELL 301800Z 12005KT 080V160 9999 FEW045 25/14 Q1017

Airport forecast (rec'd 2014/08/30 15:38Z):

TAF LELL 301400Z 3015/3115 15009KT 9999 SCT030 TX29/3113Z TN19/3105Z PROB40 
      TEMPO 3015/3022 FEW025CB SCT030 
      BECMG 3017/3020 VRB03KT

Runways (top)

13/31: 2,953 ft (900 m) — surface unknown — not lighted

Latest comments (top)

Great service, easy in & out: Here our expenses for 3 days in ... [read]

great service, great people: So going on a helicopter through spain ... [read]

More... (top)

See also NOTAMs and nearby airports and navaids, or visit the Sabadell Airport page at the main OurAirports website..